User: anonymous   Login
Location: Highridge
(54.0333°N, 114.1333°W)
Time: 10:17:02
(UTC+00:00)
Language:

CAS-4A - Orbit

View from above orbital plane
View from above orbital plane
View from above satellite
View from above satellite

Ground track
Ground track

The orbit data is extracted from the following two-line orbital elements,

1 42761U 17034D   24255.92130004  .00040855  00000-0  12495-2 0  9997
2 42761  43.0191  93.1784 0012910 231.8105 128.1586 15.33101538400695
Epoch (UTC): 11 September 2024 22:06:40
Eccentricity: 0.0012910
inclination: 43.0191°
perigee height: 458 km
apogee height: 475 km
right ascension of ascending node: 93.1784°
argument of perigee: 231.8105°
revolutions per day: 15.33101538
mean anomaly at epoch: 128.1586°
orbit number at epoch: 40069

The dashed part of the orbit path shows where the satellite is in the earth's shadow,  

DLR